Year,Month,Day,Hour,Minute,Value (Times are PST for temperature in C)
2016,06,20,00,01,13.10
2016,06,20,00,02,13.10
2016,06,20,00,03,13.00
2016,06,20,00,04,13.00
2016,06,20,00,06,13.00
2016,06,20,00,07,13.00
2016,06,20,00,09,13.00
2016,06,20,00,11,12.90
2016,06,20,00,12,12.90
2016,06,20,00,13,12.90
2016,06,20,00,14,12.90
2016,06,20,00,16,12.90
2016,06,20,00,17,12.80
2016,06,20,00,18,12.80
2016,06,20,00,19,12.80
2016,06,20,00,21,12.80
2016,06,20,00,22,12.80
2016,06,20,00,23,12.80
2016,06,20,00,24,12.80
2016,06,20,00,25,12.80
2016,06,20,00,26,12.80
2016,06,20,00,27,12.80
2016,06,20,00,28,12.80
2016,06,20,00,29,12.80
2016,06,20,00,30,12.80
2016,06,20,00,31,12.80
2016,06,20,00,32,12.70
2016,06,20,00,33,12.70
2016,06,20,00,34,12.70
2016,06,20,00,36,12.70
2016,06,20,00,37,12.70
2016,06,20,00,38,12.60
2016,06,20,00,39,12.60
2016,06,20,00,40,12.60
2016,06,20,00,41,12.60
2016,06,20,00,42,12.60
2016,06,20,00,43,12.50
2016,06,20,00,44,12.50
2016,06,20,00,45,12.50
2016,06,20,00,46,12.50
2016,06,20,00,47,12.50
2016,06,20,00,48,12.50
2016,06,20,00,49,12.50
2016,06,20,00,50,12.40
2016,06,20,00,51,12.40
2016,06,20,00,52,12.40
2016,06,20,00,53,12.40
2016,06,20,00,54,12.40
2016,06,20,00,55,12.40
2016,06,20,00,56,12.40
2016,06,20,00,57,12.40
2016,06,20,00,58,12.40
2016,06,20,00,59,12.40
2016,06,20,01,00,12.40
2016,06,20,01,01,12.40
2016,06,20,01,02,12.30
2016,06,20,01,03,12.30
2016,06,20,01,04,12.30
2016,06,20,01,05,12.30
2016,06,20,01,06,12.30
2016,06,20,01,07,12.30
2016,06,20,01,08,12.30
2016,06,20,01,09,12.30
2016,06,20,01,10,12.30
2016,06,20,01,11,12.30
2016,06,20,01,12,12.30
2016,06,20,01,13,12.30
2016,06,20,01,14,12.30
2016,06,20,01,15,12.30
2016,06,20,01,16,12.30
2016,06,20,01,17,12.30
2016,06,20,01,18,12.30
2016,06,20,01,19,12.30
2016,06,20,01,20,12.30
2016,06,20,01,21,12.30
2016,06,20,01,22,12.30
2016,06,20,01,23,12.30
2016,06,20,01,24,12.30
2016,06,20,01,25,12.30
2016,06,20,01,26,12.30
2016,06,20,01,27,12.30
2016,06,20,01,28,12.30
2016,06,20,01,29,12.30
2016,06,20,01,30,12.30
2016,06,20,01,31,12.30
2016,06,20,01,32,12.30
2016,06,20,01,33,12.30
2016,06,20,01,34,12.30
2016,06,20,01,35,12.30
2016,06,20,01,36,12.30
2016,06,20,01,37,12.30
2016,06,20,01,38,12.30
2016,06,20,01,39,12.30
2016,06,20,01,40,12.30
2016,06,20,01,41,12.30
2016,06,20,01,42,12.30
2016,06,20,01,43,12.30
2016,06,20,01,44,12.30
2016,06,20,01,45,12.30
2016,06,20,01,46,12.30
2016,06,20,01,47,12.30
2016,06,20,01,48,12.30
2016,06,20,01,49,12.30
2016,06,20,01,51,12.30
2016,06,20,01,52,12.30
2016,06,20,01,53,12.30
2016,06,20,01,54,12.30
2016,06,20,01,55,12.30
2016,06,20,01,57,12.40
2016,06,20,01,58,12.40
2016,06,20,01,59,12.40
2016,06,20,02,01,12.40
2016,06,20,02,02,12.40
2016,06,20,02,03,12.50
2016,06,20,02,04,12.50
2016,06,20,02,06,12.50
2016,06,20,02,07,12.50
2016,06,20,02,08,12.50
2016,06,20,02,09,12.50
2016,06,20,02,11,12.50
2016,06,20,02,12,12.50
2016,06,20,02,13,12.50
2016,06,20,02,14,12.50
2016,06,20,02,16,12.60
2016,06,20,02,17,12.60
2016,06,20,02,18,12.60
2016,06,20,02,19,12.60
2016,06,20,02,21,12.60
2016,06,20,02,22,12.60
2016,06,20,02,23,12.60
2016,06,20,02,24,12.60
2016,06,20,02,26,12.60
2016,06,20,02,27,12.60
2016,06,20,02,28,12.70
2016,06,20,02,29,12.70
2016,06,20,02,31,12.70
2016,06,20,02,32,12.70
2016,06,20,02,33,12.70
2016,06,20,02,34,12.70
2016,06,20,02,36,12.70
2016,06,20,02,37,12.70
2016,06,20,02,38,12.70
2016,06,20,02,39,12.80
2016,06,20,02,41,12.80
2016,06,20,02,42,12.80
2016,06,20,02,43,12.80
2016,06,20,02,44,12.80
2016,06,20,02,46,12.80
2016,06,20,02,47,12.80
2016,06,20,02,48,12.80
2016,06,20,02,49,12.80
2016,06,20,02,51,12.80
2016,06,20,02,52,12.80
2016,06,20,02,53,12.80
2016,06,20,02,54,12.80
2016,06,20,02,56,12.80
2016,06,20,02,57,12.80
2016,06,20,02,58,12.80
2016,06,20,02,59,12.80
2016,06,20,03,01,12.80
2016,06,20,03,02,12.80
2016,06,20,03,03,12.80
2016,06,20,03,04,12.80
2016,06,20,03,06,12.80
2016,06,20,03,07,12.80
2016,06,20,03,08,12.80
2016,06,20,03,09,12.80
2016,06,20,03,10,12.80
2016,06,20,03,11,12.80
2016,06,20,03,12,12.80
2016,06,20,03,13,12.80
2016,06,20,03,14,12.80
2016,06,20,03,15,12.80
2016,06,20,03,16,12.80
2016,06,20,03,17,12.80
2016,06,20,03,18,12.80
2016,06,20,03,19,12.80
2016,06,20,03,20,12.80
2016,06,20,03,21,12.80
2016,06,20,03,22,12.80
2016,06,20,03,23,12.80
2016,06,20,03,24,12.80
2016,06,20,03,25,12.80
2016,06,20,03,26,12.80
2016,06,20,03,27,12.80
2016,06,20,03,28,12.80
2016,06,20,03,29,12.70
2016,06,20,03,30,12.70
2016,06,20,03,31,12.70
2016,06,20,03,32,12.70
2016,06,20,03,33,12.70
2016,06,20,03,34,12.70
2016,06,20,03,35,12.60
2016,06,20,03,36,12.60
2016,06,20,04,29,12.10
2016,06,20,04,31,12.10
2016,06,20,04,32,12.10
2016,06,20,04,33,12.10
2016,06,20,04,34,12.10
2016,06,20,04,36,12.10
2016,06,20,04,37,12.10
2016,06,20,04,38,12.10
2016,06,20,04,39,12.00
2016,06,20,04,41,12.00
2016,06,20,04,42,12.00
2016,06,20,04,43,12.00
2016,06,20,04,44,12.00
2016,06,20,04,45,12.00
2016,06,20,04,46,12.00
2016,06,20,04,47,12.10
2016,06,20,04,48,12.00
2016,06,20,04,49,12.10
2016,06,20,04,50,12.10
2016,06,20,04,51,12.10
2016,06,20,04,52,12.10
2016,06,20,04,53,12.10
2016,06,20,04,54,12.10
2016,06,20,04,55,12.10
2016,06,20,04,56,12.10
2016,06,20,04,57,12.10
2016,06,20,04,58,12.10
2016,06,20,04,59,12.10
2016,06,20,05,00,12.10
2016,06,20,05,01,12.10
2016,06,20,05,02,12.10
2016,06,20,05,03,12.10
2016,06,20,05,04,12.10
2016,06,20,05,05,12.10
2016,06,20,05,06,12.10
2016,06,20,05,07,12.10
2016,06,20,05,08,12.10
2016,06,20,05,09,12.10
2016,06,20,05,10,12.10
2016,06,20,05,11,12.10
2016,06,20,05,12,12.10
2016,06,20,05,13,12.10
2016,06,20,05,14,12.10
2016,06,20,05,15,12.00
2016,06,20,05,16,12.00
2016,06,20,05,17,12.00
2016,06,20,05,18,12.00
2016,06,20,05,19,12.00
2016,06,20,05,20,12.00
2016,06,20,05,21,12.00
2016,06,20,05,22,12.00
2016,06,20,05,23,12.00
2016,06,20,05,24,12.00
2016,06,20,05,25,12.10
2016,06,20,05,26,12.10
2016,06,20,05,27,12.10
2016,06,20,05,28,12.10
2016,06,20,05,29,12.10
2016,06,20,05,30,12.10
2016,06,20,05,31,12.10
2016,06,20,05,32,12.10
2016,06,20,05,33,12.10
2016,06,20,05,34,12.10
2016,06,20,05,35,12.10
2016,06,20,05,36,12.10
2016,06,20,05,37,12.10
2016,06,20,05,38,12.10
2016,06,20,05,39,12.10
2016,06,20,05,40,12.10
2016,06,20,05,41,12.10
2016,06,20,05,42,12.10
2016,06,20,05,43,12.10
2016,06,20,05,44,12.10
2016,06,20,05,45,12.10
2016,06,20,05,46,12.20
2016,06,20,05,47,12.20
2016,06,20,05,48,12.20
2016,06,20,05,49,12.20
2016,06,20,05,50,12.20
2016,06,20,05,52,12.20
2016,06,20,05,53,12.20
2016,06,20,05,54,12.20
2016,06,20,05,56,12.20
2016,06,20,05,57,12.20
2016,06,20,05,58,12.30
2016,06,20,05,59,12.30
2016,06,20,06,01,12.30
2016,06,20,06,02,12.30
2016,06,20,06,03,12.30
2016,06,20,06,04,12.30
2016,06,20,06,06,12.30
2016,06,20,06,07,12.30
2016,06,20,06,08,12.30
2016,06,20,06,09,12.30
2016,06,20,06,11,12.30
2016,06,20,06,12,12.30
2016,06,20,06,13,12.30
2016,06,20,06,14,12.30
2016,06,20,06,16,12.30
2016,06,20,06,17,12.40
2016,06,20,06,18,12.40
2016,06,20,06,19,12.40
2016,06,20,06,21,12.40
2016,06,20,06,22,12.40
2016,06,20,06,23,12.40
2016,06,20,06,24,12.40
2016,06,20,06,26,12.50
2016,06,20,06,27,12.50
2016,06,20,06,28,12.50
2016,06,20,06,29,12.50
2016,06,20,06,31,12.60
2016,06,20,06,32,12.60
2016,06,20,06,33,12.60
2016,06,20,06,34,12.60
2016,06,20,06,36,12.60
2016,06,20,06,37,12.60
2016,06,20,06,38,12.70
2016,06,20,06,39,12.70
2016,06,20,06,41,12.70
2016,06,20,06,42,12.70
2016,06,20,06,43,12.70
2016,06,20,06,44,12.70
2016,06,20,06,46,12.80
2016,06,20,06,47,12.80
2016,06,20,06,48,12.80
2016,06,20,06,49,12.80
2016,06,20,06,51,12.80
2016,06,20,06,52,12.80
2016,06,20,06,53,12.80
2016,06,20,06,54,12.80
2016,06,20,06,56,12.90
2016,06,20,06,57,12.90
2016,06,20,06,58,12.90
2016,06,20,06,59,12.90
2016,06,20,07,01,13.00
2016,06,20,07,02,13.00
2016,06,20,07,03,13.00
2016,06,20,07,04,13.10
2016,06,20,07,06,13.10
2016,06,20,07,07,13.10
2016,06,20,07,08,13.20
2016,06,20,07,09,13.20
2016,06,20,07,11,13.20
2016,06,20,07,12,13.20
2016,06,20,07,13,13.20
2016,06,20,07,14,13.20
2016,06,20,07,15,13.20
2016,06,20,07,16,13.20
2016,06,20,07,17,13.20
2016,06,20,07,18,13.30
2016,06,20,07,19,13.30
2016,06,20,07,20,13.30
2016,06,20,07,21,13.30
2016,06,20,07,22,13.30
2016,06,20,07,23,13.30
2016,06,20,07,24,13.30
2016,06,20,07,25,13.30
2016,06,20,07,26,13.30
2016,06,20,07,27,13.30
2016,06,20,07,28,13.20
2016,06,20,07,29,13.20
2016,06,20,07,30,13.20
2016,06,20,07,31,13.20
2016,06,20,07,32,13.20
2016,06,20,07,33,13.20
2016,06,20,07,34,13.30
2016,06,20,07,35,13.20
2016,06,20,07,36,13.20
2016,06,20,07,37,13.30
2016,06,20,07,38,13.30
2016,06,20,07,39,13.30
2016,06,20,07,40,13.30
2016,06,20,07,41,13.30
2016,06,20,07,42,13.30
2016,06,20,07,43,13.30
2016,06,20,07,44,13.30
2016,06,20,07,45,13.30
2016,06,20,07,46,13.30
2016,06,20,07,47,13.30
2016,06,20,07,48,13.30
2016,06,20,07,49,13.30
2016,06,20,07,50,13.30
2016,06,20,07,51,13.30
2016,06,20,07,52,13.30
2016,06,20,07,53,13.30
2016,06,20,07,54,13.30
2016,06,20,07,55,13.30
2016,06,20,07,56,13.30
2016,06,20,07,57,13.30
2016,06,20,07,58,13.30
2016,06,20,07,59,13.30
2016,06,20,08,00,13.30
2016,06,20,08,01,13.30
2016,06,20,08,02,13.30
2016,06,20,08,03,13.30
2016,06,20,08,04,13.30
2016,06,20,08,05,13.30
2016,06,20,08,06,13.40
2016,06,20,08,07,13.40
2016,06,20,08,08,13.40
2016,06,20,08,09,13.40
2016,06,20,08,10,13.40
2016,06,20,08,11,13.50
2016,06,20,08,12,13.50
2016,06,20,08,13,13.50
2016,06,20,08,14,13.50
2016,06,20,08,15,13.60
2016,06,20,08,16,13.60
2016,06,20,08,17,13.60
2016,06,20,08,18,13.70
2016,06,20,08,19,13.70
2016,06,20,08,20,13.70
2016,06,20,08,21,13.70
2016,06,20,08,22,13.70
2016,06,20,08,23,13.80
2016,06,20,08,24,13.80
2016,06,20,08,25,13.80
2016,06,20,08,26,13.90
2016,06,20,08,27,13.90
2016,06,20,08,28,13.90
2016,06,20,08,29,13.90
2016,06,20,08,30,14.00
2016,06,20,08,31,14.00
2016,06,20,08,32,14.10
2016,06,20,08,33,14.10
2016,06,20,08,34,14.10
2016,06,20,08,35,14.20
2016,06,20,08,37,14.20
2016,06,20,08,39,14.20
2016,06,20,08,41,14.20
2016,06,20,08,42,14.30
2016,06,20,08,43,14.30
2016,06,20,08,44,14.40
2016,06,20,08,46,14.40
2016,06,20,08,47,14.40
2016,06,20,08,48,14.50
2016,06,20,08,49,14.50
2016,06,20,08,51,14.50
2016,06,20,08,52,14.50
2016,06,20,08,53,14.50
2016,06,20,08,54,14.60
2016,06,20,08,56,14.60
2016,06,20,08,57,14.60
2016,06,20,08,58,14.60
2016,06,20,08,59,14.60
2016,06,20,09,01,14.70
2016,06,20,09,02,14.70
2016,06,20,09,03,14.70
2016,06,20,09,04,14.70
2016,06,20,09,06,14.70
2016,06,20,09,07,14.70
2016,06,20,09,08,14.70
2016,06,20,09,09,14.70
2016,06,20,09,11,14.80
2016,06,20,09,12,14.80
2016,06,20,09,13,14.80
2016,06,20,09,14,14.80
2016,06,20,09,16,14.80
2016,06,20,09,17,14.80
2016,06,20,09,18,14.80
2016,06,20,09,19,14.80
2016,06,20,09,29,14.80
2016,06,20,09,31,14.90
2016,06,20,09,32,14.90
2016,06,20,09,33,14.90
2016,06,20,09,34,14.90
2016,06,20,09,36,14.90
2016,06,20,09,37,15.00
2016,06,20,09,38,15.00
2016,06,20,09,39,15.00
2016,06,20,09,41,15.20
2016,06,20,09,42,15.20
2016,06,20,09,43,15.30
2016,06,20,09,44,15.30
2016,06,20,09,45,15.50
2016,06,20,09,46,15.60
2016,06,20,09,47,15.70
2016,06,20,09,48,15.80
2016,06,20,09,49,15.80
2016,06,20,09,50,15.90
2016,06,20,09,51,16.10
2016,06,20,09,52,16.10
2016,06,20,09,53,16.10
2016,06,20,09,54,16.20
2016,06,20,09,55,16.30
2016,06,20,09,56,16.30
2016,06,20,09,57,16.30
2016,06,20,09,58,16.30
2016,06,20,09,59,16.30
2016,06,20,10,00,16.30
2016,06,20,10,01,16.30
2016,06,20,10,02,16.30
2016,06,20,10,03,16.20
2016,06,20,10,04,16.20
2016,06,20,10,05,16.30
2016,06,20,10,06,16.30
2016,06,20,10,07,16.30
2016,06,20,10,08,16.30
2016,06,20,10,09,16.40
2016,06,20,10,10,16.40
2016,06,20,10,11,16.40
2016,06,20,10,12,16.60
2016,06,20,10,13,16.60
2016,06,20,10,14,16.70
2016,06,20,10,15,16.70
2016,06,20,10,16,16.70
2016,06,20,10,17,16.70
2016,06,20,10,18,16.70
2016,06,20,10,19,16.70
2016,06,20,10,20,16.70
2016,06,20,10,21,16.70
2016,06,20,10,22,16.70
2016,06,20,10,23,16.70
2016,06,20,10,24,16.70
2016,06,20,10,25,16.70
2016,06,20,10,26,16.70
2016,06,20,10,27,16.70
2016,06,20,10,28,16.70
2016,06,20,10,29,16.70
2016,06,20,10,30,16.70
2016,06,20,10,31,16.70
2016,06,20,10,32,16.70
2016,06,20,10,33,16.70
2016,06,20,10,34,16.70
2016,06,20,10,35,16.70
2016,06,20,10,36,16.70
2016,06,20,10,37,16.70
2016,06,20,10,38,16.60
2016,06,20,10,39,16.60
2016,06,20,10,40,16.60
2016,06,20,10,41,16.70
2016,06,20,10,42,16.70
2016,06,20,10,43,16.70
2016,06,20,10,44,16.70
2016,06,20,10,45,16.70
2016,06,20,10,46,16.70
2016,06,20,10,47,16.70
2016,06,20,10,48,16.70
2016,06,20,10,49,16.70
2016,06,20,10,50,16.70
2016,06,20,10,51,16.70
2016,06,20,10,52,16.70
2016,06,20,10,53,16.70
2016,06,20,10,54,16.70
2016,06,20,10,56,16.70
2016,06,20,10,57,16.70
2016,06,20,10,58,16.70
2016,06,20,10,59,16.70
2016,06,20,11,01,16.80
2016,06,20,11,02,16.80
2016,06,20,11,03,16.90
2016,06,20,11,04,17.00
2016,06,20,11,06,17.20
2016,06,20,11,07,17.30
2016,06,20,11,08,17.30
2016,06,20,11,09,17.30
2016,06,20,11,11,17.40
2016,06,20,11,12,17.40
2016,06,20,11,13,17.40
2016,06,20,11,14,17.40
2016,06,20,11,16,17.50
2016,06,20,11,17,17.60
2016,06,20,11,18,17.60
2016,06,20,11,19,17.70
2016,06,20,11,21,17.70
2016,06,20,11,22,17.60
2016,06,20,11,23,17.60
2016,06,20,11,24,17.50
2016,06,20,11,26,17.40
2016,06,20,11,27,17.40
2016,06,20,11,28,17.40
2016,06,20,11,29,17.30
2016,06,20,11,31,17.30
2016,06,20,11,32,17.20
2016,06,20,11,33,17.10
2016,06,20,11,34,17.10
2016,06,20,11,36,17.00
2016,06,20,11,37,17.00
2016,06,20,11,38,16.90
2016,06,20,11,39,16.90
2016,06,20,11,41,16.90
2016,06,20,11,42,16.80
2016,06,20,11,43,16.80
2016,06,20,11,44,16.80
2016,06,20,11,46,16.80
2016,06,20,11,47,16.80
2016,06,20,11,48,16.80
2016,06,20,11,49,16.80
2016,06,20,11,51,16.80
2016,06,20,11,52,16.80
2016,06,20,11,53,16.70
2016,06,20,11,54,16.70
2016,06,20,11,56,16.80
2016,06,20,11,57,16.80
2016,06,20,11,58,16.80
2016,06,20,11,59,16.80
2016,06,20,12,01,16.80
2016,06,20,12,02,16.80
2016,06,20,12,03,16.80
2016,06,20,12,04,16.90
2016,06,20,12,06,17.00
2016,06,20,12,07,17.00
2016,06,20,12,08,17.10
2016,06,20,12,09,17.10
2016,06,20,12,10,17.10
2016,06,20,12,11,17.20
2016,06,20,12,12,17.20
2016,06,20,12,13,17.30
2016,06,20,12,14,17.30
2016,06,20,12,15,17.30
2016,06,20,12,16,17.30
2016,06,20,12,17,17.40
2016,06,20,12,18,17.40
2016,06,20,12,19,17.50
2016,06,20,12,20,17.50
2016,06,20,12,21,17.50
2016,06,20,12,22,17.50
2016,06,20,12,23,17.50
2016,06,20,12,24,17.50
2016,06,20,12,25,17.60
2016,06,20,12,26,17.60
2016,06,20,12,27,17.60
2016,06,20,12,28,17.70
2016,06,20,12,29,17.80
2016,06,20,12,30,17.80
2016,06,20,12,31,17.90
2016,06,20,12,32,17.90
2016,06,20,12,33,17.90
2016,06,20,12,34,17.90
2016,06,20,12,35,18.10
2016,06,20,12,36,18.10
2016,06,20,12,37,18.10
2016,06,20,12,38,18.20
2016,06,20,12,39,18.20
2016,06,20,12,40,18.20
2016,06,20,12,41,18.20
2016,06,20,12,42,18.20
2016,06,20,12,43,18.20
2016,06,20,12,44,18.20
2016,06,20,12,45,18.20
2016,06,20,12,46,18.30
2016,06,20,12,47,18.30
2016,06,20,12,48,18.30
2016,06,20,12,49,18.40
2016,06,20,12,50,18.40
2016,06,20,12,51,18.50
2016,06,20,12,52,18.60
2016,06,20,12,53,18.60
2016,06,20,12,54,18.70
2016,06,20,12,55,18.70
2016,06,20,12,56,18.70
2016,06,20,12,57,18.70
2016,06,20,12,58,18.70
2016,06,20,12,59,18.70
2016,06,20,13,00,18.70
2016,06,20,13,01,18.70
2016,06,20,13,02,18.70
2016,06,20,13,03,18.80
2016,06,20,13,04,18.80
2016,06,20,13,05,18.80
2016,06,20,13,06,18.80
2016,06,20,13,07,18.80
2016,06,20,13,08,18.80
2016,06,20,13,09,18.80
2016,06,20,13,10,18.80
2016,06,20,13,11,18.80
2016,06,20,13,12,18.80
2016,06,20,13,13,18.80
2016,06,20,13,14,18.80
2016,06,20,13,15,18.80
2016,06,20,13,16,18.80
2016,06,20,13,17,18.80
2016,06,20,13,18,18.90
2016,06,20,13,19,18.90
2016,06,20,13,20,18.90
2016,06,20,13,21,18.90
2016,06,20,13,22,18.90
2016,06,20,13,23,18.90
2016,06,20,13,24,18.90
2016,06,20,13,25,18.90
2016,06,20,13,26,19.10
2016,06,20,13,27,19.10
2016,06,20,13,28,19.10
2016,06,20,13,29,19.10
2016,06,20,13,30,19.10
2016,06,20,13,31,18.90
2016,06,20,13,32,18.90
2016,06,20,13,33,18.90
2016,06,20,13,34,18.90
2016,06,20,13,35,18.90
2016,06,20,13,36,18.80
2016,06,20,13,37,18.70
2016,06,20,13,38,18.70
2016,06,20,13,39,18.70
2016,06,20,13,41,18.80
2016,06,20,13,42,18.80
2016,06,20,13,43,18.80
2016,06,20,13,44,18.80
2016,06,20,13,46,18.90
2016,06,20,13,47,18.90
2016,06,20,13,48,18.90
2016,06,20,13,49,18.90
2016,06,20,13,51,18.80
2016,06,20,13,52,18.70
2016,06,20,13,53,18.70
2016,06,20,13,54,18.60
2016,06,20,13,56,18.70
2016,06,20,13,57,18.70
2016,06,20,13,58,18.70
2016,06,20,13,59,18.70
2016,06,20,14,01,18.90
2016,06,20,14,02,18.90
2016,06,20,14,03,18.90
2016,06,20,14,04,19.10
2016,06,20,14,06,18.90
2016,06,20,14,07,18.90
2016,06,20,14,08,18.90
2016,06,20,14,09,18.80
2016,06,20,14,11,18.60
2016,06,20,14,12,18.60
2016,06,20,14,13,18.50
2016,06,20,14,14,18.50
2016,06,20,14,16,18.50
2016,06,20,14,17,18.50
2016,06,20,14,18,18.50
2016,06,20,14,19,18.60
2016,06,20,14,21,18.70
2016,06,20,14,22,18.70
2016,06,20,14,23,18.80
2016,06,20,14,24,18.90
2016,06,20,14,26,19.10
2016,06,20,14,27,19.20
2016,06,20,14,28,19.40
2016,06,20,14,29,19.50
2016,06,20,14,31,19.70
2016,06,20,14,32,19.80
2016,06,20,14,33,19.90
2016,06,20,14,34,19.90
2016,06,20,14,36,19.90
2016,06,20,14,37,19.80
2016,06,20,14,38,19.80
2016,06,20,14,39,19.70
2016,06,20,14,41,19.60
2016,06,20,14,42,19.50
2016,06,20,14,43,19.40
2016,06,20,14,44,19.40
2016,06,20,14,46,19.40
2016,06,20,14,47,19.40
2016,06,20,14,48,19.40
2016,06,20,14,49,19.40
2016,06,20,14,51,19.40
2016,06,20,14,52,19.30
2016,06,20,14,53,19.30
2016,06,20,14,54,19.30
2016,06,20,14,55,19.30
2016,06,20,14,56,19.30
2016,06,20,14,57,19.40
2016,06,20,14,58,19.40
2016,06,20,14,59,19.50
2016,06,20,15,00,19.60
2016,06,20,15,01,19.70
2016,06,20,15,02,19.70
2016,06,20,15,03,19.70
2016,06,20,15,04,19.60
2016,06,20,15,06,19.40
2016,06,20,15,07,19.30
2016,06,20,15,08,19.20
2016,06,20,15,09,19.10
2016,06,20,15,10,19.10
2016,06,20,15,11,18.90
2016,06,20,15,12,18.70
2016,06,20,15,13,18.60
2016,06,20,15,14,18.60
2016,06,20,15,15,18.50
2016,06,20,15,16,18.50
2016,06,20,15,17,18.40
2016,06,20,15,18,18.40
2016,06,20,15,19,18.40
2016,06,20,15,20,18.50
2016,06,20,15,21,18.50
2016,06,20,15,22,18.60
2016,06,20,15,23,18.60
2016,06,20,15,24,18.70
2016,06,20,15,25,18.80
2016,06,20,15,26,18.80
2016,06,20,15,27,18.70
2016,06,20,15,28,18.70
2016,06,20,15,29,18.70
2016,06,20,15,30,18.70
2016,06,20,15,31,18.80
2016,06,20,15,32,18.80
2016,06,20,15,33,18.90
2016,06,20,15,34,18.90
2016,06,20,15,35,18.90
2016,06,20,15,36,18.90
2016,06,20,15,37,18.90
2016,06,20,15,38,18.90
2016,06,20,15,39,18.90
2016,06,20,15,40,18.90
2016,06,20,15,41,18.90
2016,06,20,15,42,18.90
2016,06,20,15,43,18.80
2016,06,20,15,44,18.80
2016,06,20,15,45,18.80
2016,06,20,15,46,18.90
2016,06,20,15,47,18.90
2016,06,20,15,48,18.90
2016,06,20,15,49,18.90
2016,06,20,15,50,18.90
2016,06,20,15,51,18.90
2016,06,20,15,52,18.90
2016,06,20,15,53,18.90
2016,06,20,15,54,18.90
2016,06,20,15,55,18.90
2016,06,20,15,56,18.90
2016,06,20,15,57,18.90
2016,06,20,15,58,19.10
2016,06,20,15,59,19.10
2016,06,20,16,00,19.10
2016,06,20,16,01,19.20
2016,06,20,16,02,19.30
2016,06,20,16,03,19.30
2016,06,20,16,04,19.40
2016,06,20,16,05,19.40
2016,06,20,16,06,19.40
2016,06,20,16,07,19.40
2016,06,20,16,08,19.40
2016,06,20,16,09,19.30
2016,06,20,16,10,19.30
2016,06,20,16,11,19.30
2016,06,20,16,12,19.30
2016,06,20,16,13,19.20
2016,06,20,16,14,19.10
2016,06,20,16,15,19.10
2016,06,20,16,16,18.90
2016,06,20,16,17,18.90
2016,06,20,16,18,18.90
2016,06,20,16,19,18.80
2016,06,20,16,20,18.70
2016,06,20,16,22,18.60
2016,06,20,16,23,18.60
2016,06,20,16,24,18.60
2016,06,20,16,26,18.70
2016,06,20,16,27,18.70
2016,06,20,16,28,18.70
2016,06,20,16,29,18.70
2016,06,20,16,31,18.60
2016,06,20,16,32,18.50
2016,06,20,16,33,18.50
2016,06,20,16,34,18.40
2016,06,20,16,36,18.40
2016,06,20,16,37,18.40
2016,06,20,16,38,18.50
2016,06,20,16,39,18.50
2016,06,20,16,41,18.40
2016,06,20,16,42,18.50
2016,06,20,16,43,18.50
2016,06,20,16,44,18.60
2016,06,20,16,46,18.70
2016,06,20,16,47,18.80
2016,06,20,16,48,18.90
2016,06,20,16,49,18.90
2016,06,20,16,51,18.90
2016,06,20,16,52,18.90
2016,06,20,16,53,18.90
2016,06,20,16,54,18.90
2016,06,20,16,56,19.10
2016,06,20,16,57,19.10
2016,06,20,16,58,19.10
2016,06,20,16,59,19.10
2016,06,20,17,01,19.30
2016,06,20,17,02,19.30
2016,06,20,17,03,19.40
2016,06,20,17,04,19.40
2016,06,20,17,06,19.50
2016,06,20,17,07,19.50
2016,06,20,17,08,19.60
2016,06,20,17,09,19.60
2016,06,20,17,11,19.60
2016,06,20,17,12,19.60
2016,06,20,17,13,19.60
2016,06,20,17,14,19.60
2016,06,20,17,16,19.50
2016,06,20,17,17,19.40
2016,06,20,17,18,19.30
2016,06,20,17,19,19.20
2016,06,20,17,21,19.10
2016,06,20,17,22,19.10
2016,06,20,17,23,19.10
2016,06,20,17,24,19.10
2016,06,20,17,26,19.10
2016,06,20,17,27,19.10
2016,06,20,17,28,18.90
2016,06,20,17,29,18.90
2016,06,20,17,31,18.90
2016,06,20,17,32,18.90
2016,06,20,17,33,18.90
2016,06,20,17,34,18.90
2016,06,20,17,36,18.90
2016,06,20,17,37,18.90
2016,06,20,17,38,18.90
2016,06,20,17,39,18.90
2016,06,20,17,40,18.90
2016,06,20,17,41,18.90
2016,06,20,17,42,19.10
2016,06,20,17,43,19.10
2016,06,20,17,44,19.10
2016,06,20,17,45,19.10
2016,06,20,17,46,19.10
2016,06,20,17,47,19.10
2016,06,20,17,48,19.10
2016,06,20,17,49,19.10
2016,06,20,17,50,18.90
2016,06,20,17,51,18.90
2016,06,20,17,52,18.90
2016,06,20,17,53,18.90
2016,06,20,17,54,18.90
2016,06,20,17,55,18.90
2016,06,20,17,56,18.90
2016,06,20,17,57,18.90
2016,06,20,17,58,18.90
2016,06,20,17,59,18.90
2016,06,20,18,00,18.90
2016,06,20,18,01,18.90
2016,06,20,18,02,18.80
2016,06,20,18,03,18.70
2016,06,20,18,04,18.60
2016,06,20,18,05,18.60
2016,06,20,18,06,18.40
2016,06,20,18,07,18.40
2016,06,20,18,08,18.30
2016,06,20,18,09,18.20
2016,06,20,18,10,18.20
2016,06,20,18,11,18.20
2016,06,20,18,12,18.20
2016,06,20,18,13,18.20
2016,06,20,18,14,18.10
2016,06,20,18,15,18.10
2016,06,20,18,16,17.90
2016,06,20,18,17,17.90
2016,06,20,18,18,17.90
2016,06,20,18,19,17.90
2016,06,20,18,20,17.90
2016,06,20,18,21,17.90
2016,06,20,18,22,17.90
2016,06,20,18,23,17.90
2016,06,20,18,24,17.90
2016,06,20,18,25,17.90
2016,06,20,18,26,17.80
2016,06,20,18,27,17.60
2016,06,20,18,28,17.50
2016,06,20,18,29,17.40
2016,06,20,18,30,17.30
2016,06,20,18,31,17.30
2016,06,20,18,32,17.20
2016,06,20,18,33,17.10
2016,06,20,18,34,17.10
2016,06,20,18,35,17.00
2016,06,20,18,36,16.90
2016,06,20,18,37,16.90
2016,06,20,18,38,16.80
2016,06,20,18,39,16.80
2016,06,20,18,40,16.80
2016,06,20,18,41,16.70
2016,06,20,18,42,16.70
2016,06,20,18,43,16.70
2016,06,20,18,44,16.80
2016,06,20,18,45,16.80
2016,06,20,18,46,16.80
2016,06,20,18,47,16.80
2016,06,20,18,48,16.90
2016,06,20,18,49,16.90
2016,06,20,18,50,16.90
2016,06,20,18,51,16.90
2016,06,20,18,52,16.90
2016,06,20,18,53,16.90
2016,06,20,18,54,16.80
2016,06,20,18,55,16.80
2016,06,20,18,56,16.70
2016,06,20,18,57,16.70
2016,06,20,18,58,16.70
2016,06,20,18,59,16.70
2016,06,20,19,00,16.70
2016,06,20,19,01,16.70
2016,06,20,19,02,16.70
2016,06,20,19,03,16.70
2016,06,20,19,04,16.80
2016,06,20,19,06,16.90
2016,06,20,19,07,16.90
2016,06,20,19,08,17.00
2016,06,20,19,09,17.00
2016,06,20,19,11,17.00
2016,06,20,19,12,17.00
2016,06,20,19,13,17.00
2016,06,20,19,14,17.00
2016,06,20,19,16,17.00
2016,06,20,19,17,17.00
2016,06,20,19,18,17.00
2016,06,20,19,19,17.00
2016,06,20,19,21,17.00
2016,06,20,19,22,17.00
2016,06,20,19,23,16.90
2016,06,20,19,24,16.80
2016,06,20,19,26,16.40
2016,06,20,19,27,16.30
2016,06,20,19,28,16.10
2016,06,20,19,29,16.10
2016,06,20,19,31,15.90
2016,06,20,19,32,15.90
2016,06,20,19,33,15.80
2016,06,20,19,34,15.80
2016,06,20,19,36,15.80
2016,06,20,19,37,15.80
2016,06,20,19,38,15.90
2016,06,20,19,39,16.20
2016,06,20,19,41,16.70
2016,06,20,19,42,17.10
2016,06,20,19,43,17.40
2016,06,20,19,44,17.80
2016,06,20,19,46,18.40
2016,06,20,19,47,18.80
2016,06,20,19,48,18.90
2016,06,20,19,49,19.10
2016,06,20,19,51,19.50
2016,06,20,19,52,19.70
2016,06,20,19,53,19.80
2016,06,20,19,54,19.90
2016,06,20,19,56,20.10
2016,06,20,19,57,20.10
2016,06,20,19,58,20.20
2016,06,20,19,59,20.20
2016,06,20,20,01,20.20
2016,06,20,20,02,20.20
2016,06,20,20,03,20.20
2016,06,20,20,04,20.20
2016,06,20,20,06,20.20
2016,06,20,20,07,20.20
2016,06,20,20,08,20.20
2016,06,20,20,09,20.20
2016,06,20,20,11,20.20
2016,06,20,20,12,20.20
2016,06,20,20,13,20.20
2016,06,20,20,14,20.20
2016,06,20,20,16,20.20
2016,06,20,20,17,20.20
2016,06,20,20,18,20.20